Year,Month,Day,Hour,Minute,Value (Times are PST for windgust in km/hr)
2011,11,22,00,08,1.60
2011,11,22,00,09,1.60
2011,11,22,00,12,1.60
2011,11,22,00,17,1.60
2011,11,22,00,21,1.60
2011,11,22,00,22,3.20
2011,11,22,00,26,1.60
2011,11,22,00,29,4.80
2011,11,22,00,33,1.60
2011,11,22,00,34,4.80
2011,11,22,00,35,11.30
2011,11,22,00,36,3.20
2011,11,22,00,37,11.30
2011,11,22,00,38,9.60
2011,11,22,00,39,8.10
2011,11,22,00,40,11.30
2011,11,22,00,41,9.60
2011,11,22,00,42,4.80
2011,11,22,00,43,4.80
2011,11,22,00,44,9.60
2011,11,22,00,45,11.30
2011,11,22,00,46,11.30
2011,11,22,00,47,4.80
2011,11,22,00,48,19.30
2011,11,22,00,49,17.70
2011,11,22,00,50,3.20
2011,11,22,00,51,14.50
2011,11,22,00,52,17.70
2011,11,22,00,53,6.40
2011,11,22,00,54,12.90
2011,11,22,00,55,27.40
2011,11,22,00,56,19.30
2011,11,22,00,57,20.90
2011,11,22,00,58,20.90
2011,11,22,00,59,17.70
2011,11,22,01,00,30.60
2011,11,22,01,01,14.50
2011,11,22,01,02,19.30
2011,11,22,01,03,17.70
2011,11,22,01,04,20.90
2011,11,22,01,05,16.10
2011,11,22,01,06,12.90
2011,11,22,01,07,16.10
2011,11,22,01,08,20.90
2011,11,22,01,09,20.90
2011,11,22,01,10,20.90
2011,11,22,01,11,19.30
2011,11,22,01,12,14.50
2011,11,22,01,13,14.50
2011,11,22,01,14,27.40
2011,11,22,01,15,22.50
2011,11,22,01,16,24.20
2011,11,22,01,17,20.90
2011,11,22,01,18,19.30
2011,11,22,01,19,16.10
2011,11,22,01,20,17.70
2011,11,22,01,21,22.50
2011,11,22,01,22,24.20
2011,11,22,01,23,17.70
2011,11,22,01,24,30.60
2011,11,22,01,25,12.90
2011,11,22,01,26,27.40
2011,11,22,01,27,17.70
2011,11,22,01,28,16.10
2011,11,22,01,29,9.60
2011,11,22,01,30,8.10
2011,11,22,01,31,4.80
2011,11,22,01,32,6.40
2011,11,22,01,33,9.60
2011,11,22,01,34,27.40
2011,11,22,01,35,27.40
2011,11,22,01,36,14.50
2011,11,22,01,37,4.80
2011,11,22,01,38,17.70
2011,11,22,01,39,14.50
2011,11,22,01,40,16.10
2011,11,22,01,41,16.10
2011,11,22,01,42,9.60
2011,11,22,01,43,20.90
2011,11,22,01,44,24.20
2011,11,22,01,45,16.10
2011,11,22,01,46,16.10
2011,11,22,01,47,14.50
2011,11,22,01,48,17.70
2011,11,22,01,49,12.90
2011,11,22,01,50,14.50
2011,11,22,01,51,11.30
2011,11,22,01,52,12.90
2011,11,22,01,53,14.50
2011,11,22,01,54,11.30
2011,11,22,01,55,19.30
2011,11,22,01,56,9.60
2011,11,22,01,57,16.10
2011,11,22,01,58,17.70
2011,11,22,01,59,17.70
2011,11,22,02,00,14.50
2011,11,22,02,01,8.10
2011,11,22,02,02,17.70
2011,11,22,02,03,16.10
2011,11,22,02,04,17.70
2011,11,22,02,05,16.10
2011,11,22,02,06,9.60
2011,11,22,02,07,17.70
2011,11,22,02,08,14.50
2011,11,22,02,09,11.30
2011,11,22,02,10,16.10
2011,11,22,02,11,35.40
2011,11,22,02,12,17.70
2011,11,22,02,13,16.10
2011,11,22,02,14,20.90
2011,11,22,02,15,14.50
2011,11,22,02,16,11.30
2011,11,22,02,17,9.60
2011,11,22,02,18,11.30
2011,11,22,02,19,27.40
2011,11,22,02,20,17.70
2011,11,22,02,21,9.60
2011,11,22,02,22,17.70
2011,11,22,02,23,16.10
2011,11,22,02,24,17.70
2011,11,22,02,25,27.40
2011,11,22,02,26,9.60
2011,11,22,02,27,8.10
2011,11,22,02,28,8.10
2011,11,22,02,29,12.90
2011,11,22,02,30,20.90
2011,11,22,02,31,14.50
2011,11,22,02,32,22.50
2011,11,22,02,33,17.70
2011,11,22,02,34,19.30
2011,11,22,02,35,25.70
2011,11,22,02,36,24.20
2011,11,22,02,37,20.90
2011,11,22,02,38,8.10
2011,11,22,02,39,17.70
2011,11,22,02,40,11.30
2011,11,22,02,41,17.70
2011,11,22,02,42,20.90
2011,11,22,02,43,11.30
2011,11,22,02,44,30.60
2011,11,22,02,45,17.70
2011,11,22,02,46,16.10
2011,11,22,02,47,16.10
2011,11,22,02,48,17.70
2011,11,22,02,49,16.10
2011,11,22,02,50,19.30
2011,11,22,02,51,24.20
2011,11,22,02,52,8.10
2011,11,22,02,53,8.10
2011,11,22,02,54,12.90
2011,11,22,02,55,9.60
2011,11,22,02,56,19.30
2011,11,22,02,57,19.30
2011,11,22,02,58,14.50
2011,11,22,02,59,11.30
2011,11,22,03,00,12.90
2011,11,22,03,01,22.50
2011,11,22,03,02,17.70
2011,11,22,03,03,27.40
2011,11,22,03,04,14.50
2011,11,22,03,05,19.30
2011,11,22,03,06,19.30
2011,11,22,03,07,16.10
2011,11,22,03,08,11.30
2011,11,22,03,09,8.10
2011,11,22,03,10,17.70
2011,11,22,03,11,17.70
2011,11,22,03,12,14.50
2011,11,22,03,13,22.50
2011,11,22,03,14,22.50
2011,11,22,03,15,16.10
2011,11,22,03,16,12.90
2011,11,22,03,17,11.30
2011,11,22,03,18,16.10
2011,11,22,03,19,6.40
2011,11,22,03,20,6.40
2011,11,22,03,21,12.90
2011,11,22,03,22,11.30
2011,11,22,03,23,14.50
2011,11,22,03,24,16.10
2011,11,22,03,25,16.10
2011,11,22,03,26,16.10
2011,11,22,03,27,16.10
2011,11,22,03,28,8.10
2011,11,22,03,29,4.80
2011,11,22,03,30,6.40
2011,11,22,03,31,8.10
2011,11,22,03,32,4.80
2011,11,22,03,33,8.10
2011,11,22,03,34,9.60
2011,11,22,03,35,11.30
2011,11,22,03,36,9.60
2011,11,22,03,37,11.30
2011,11,22,03,38,19.30
2011,11,22,03,39,14.50
2011,11,22,03,40,6.40
2011,11,22,03,41,11.30
2011,11,22,03,42,17.70
2011,11,22,03,43,11.30
2011,11,22,03,44,9.60
2011,11,22,03,45,8.10
2011,11,22,03,46,9.60
2011,11,22,03,47,16.10
2011,11,22,03,48,8.10
2011,11,22,03,49,4.80
2011,11,22,03,50,6.40
2011,11,22,03,51,9.60
2011,11,22,03,52,8.10
2011,11,22,03,53,22.50
2011,11,22,03,54,17.70
2011,11,22,03,55,11.30
2011,11,22,03,56,22.50
2011,11,22,03,57,16.10
2011,11,22,03,58,17.70
2011,11,22,03,59,17.70
2011,11,22,04,00,6.40
2011,11,22,04,01,11.30
2011,11,22,04,02,9.60
2011,11,22,04,03,19.30
2011,11,22,04,04,19.30
2011,11,22,04,05,35.40
2011,11,22,04,06,9.60
2011,11,22,04,07,14.50
2011,11,22,04,08,16.10
2011,11,22,04,09,17.70
2011,11,22,04,10,17.70
2011,11,22,04,11,25.70
2011,11,22,04,12,20.90
2011,11,22,04,13,11.30
2011,11,22,04,14,27.40
2011,11,22,04,15,49.90
2011,11,22,04,16,37.00
2011,11,22,04,17,74.00
2011,11,22,04,18,19.30
2011,11,22,04,19,19.30
2011,11,22,04,20,8.10
2011,11,22,04,21,9.60
2011,11,22,04,22,17.70
2011,11,22,04,23,16.10
2011,11,22,04,24,17.70
2011,11,22,04,25,33.80
2011,11,22,04,26,19.30
2011,11,22,04,27,17.70
2011,11,22,04,28,27.40
2011,11,22,04,29,30.60
2011,11,22,04,30,14.50
2011,11,22,04,31,22.50
2011,11,22,04,32,16.10
2011,11,22,04,33,22.50
2011,11,22,04,34,29.00
2011,11,22,04,35,9.60
2011,11,22,04,36,19.30
2011,11,22,04,37,24.20
2011,11,22,04,38,30.60
2011,11,22,04,39,16.10
2011,11,22,04,40,30.60
2011,11,22,04,41,19.30
2011,11,22,04,42,27.40
2011,11,22,04,43,24.20
2011,11,22,04,44,11.30
2011,11,22,04,45,14.50
2011,11,22,04,46,27.40
2011,11,22,04,47,20.90
2011,11,22,04,48,17.70
2011,11,22,04,49,12.90
2011,11,22,04,50,12.90
2011,11,22,04,51,12.90
2011,11,22,04,52,8.10
2011,11,22,04,53,6.40
2011,11,22,04,54,6.40
2011,11,22,04,55,29.00
2011,11,22,04,56,20.90
2011,11,22,04,57,17.70
2011,11,22,04,58,20.90
2011,11,22,04,59,16.10
2011,11,22,05,00,4.80
2011,11,22,05,01,6.40
2011,11,22,05,02,8.10
2011,11,22,05,03,9.60
2011,11,22,05,04,4.80
2011,11,22,05,05,11.30
2011,11,22,05,06,4.80
2011,11,22,05,07,9.60
2011,11,22,05,08,6.40
2011,11,22,05,09,14.50
2011,11,22,05,10,16.10
2011,11,22,05,11,16.10
2011,11,22,05,12,1.60
2011,11,22,05,13,6.40
2011,11,22,05,14,4.80
2011,11,22,05,15,9.60
2011,11,22,05,16,11.30
2011,11,22,05,17,17.70
2011,11,22,05,18,8.10
2011,11,22,05,19,16.10
2011,11,22,05,20,17.70
2011,11,22,05,21,9.60
2011,11,22,05,22,6.40
2011,11,22,05,23,4.80
2011,11,22,05,24,6.40
2011,11,22,05,25,12.90
2011,11,22,05,26,6.40
2011,11,22,05,27,3.20
2011,11,22,05,28,9.60
2011,11,22,05,29,22.50
2011,11,22,05,30,9.60
2011,11,22,05,31,9.60
2011,11,22,05,32,14.50
2011,11,22,05,33,6.40
2011,11,22,05,34,3.20
2011,11,22,05,35,11.30
2011,11,22,05,36,6.40
2011,11,22,05,37,3.20
2011,11,22,05,39,8.10
2011,11,22,05,40,8.10
2011,11,22,05,41,16.10
2011,11,22,05,42,4.80
2011,11,22,05,44,8.10
2011,11,22,05,45,1.60
2011,11,22,05,46,6.40
2011,11,22,05,47,8.10
2011,11,22,05,48,6.40
2011,11,22,05,49,1.60
2011,11,22,05,50,4.80
2011,11,22,05,51,4.80
2011,11,22,05,52,8.10
2011,11,22,05,53,6.40
2011,11,22,05,54,4.80
2011,11,22,05,55,4.80
2011,11,22,05,56,3.20
2011,11,22,05,57,4.80
2011,11,22,05,58,6.40
2011,11,22,05,59,4.80
2011,11,22,06,00,6.40
2011,11,22,06,01,4.80
2011,11,22,06,02,6.40
2011,11,22,06,03,4.80
2011,11,22,06,04,3.20
2011,11,22,06,05,6.40
2011,11,22,06,06,14.50
2011,11,22,06,07,6.40
2011,11,22,06,08,6.40
2011,11,22,06,09,8.10
2011,11,22,06,10,8.10
2011,11,22,06,11,6.40
2011,11,22,06,12,6.40
2011,11,22,06,13,6.40
2011,11,22,06,14,3.20
2011,11,22,06,15,6.40
2011,11,22,06,16,8.10
2011,11,22,06,18,1.60
2011,11,22,06,19,1.60
2011,11,22,06,20,1.60
2011,11,22,06,21,4.80
2011,11,22,06,22,4.80
2011,11,22,06,23,1.60
2011,11,22,06,24,4.80
2011,11,22,06,25,3.20
2011,11,22,06,26,4.80
2011,11,22,06,27,4.80
2011,11,22,06,28,1.60
2011,11,22,06,32,3.20
2011,11,22,06,33,3.20
2011,11,22,06,34,6.40
2011,11,22,06,35,3.20
2011,11,22,06,36,3.20
2011,11,22,06,37,8.10
2011,11,22,06,38,4.80
2011,11,22,06,39,3.20
2011,11,22,06,40,4.80
2011,11,22,06,41,8.10
2011,11,22,06,42,4.80
2011,11,22,06,43,1.60
2011,11,22,06,45,8.10
2011,11,22,06,46,3.20
2011,11,22,06,47,3.20
2011,11,22,06,48,3.20
2011,11,22,06,49,6.40
2011,11,22,06,50,8.10
2011,11,22,06,51,3.20
2011,11,22,06,52,1.60
2011,11,22,06,53,3.20
2011,11,22,06,54,3.20
2011,11,22,06,55,4.80
2011,11,22,06,56,3.20
2011,11,22,06,57,1.60
2011,11,22,06,58,3.20
2011,11,22,06,59,1.60
2011,11,22,07,00,3.20
2011,11,22,07,02,1.60
2011,11,22,07,03,1.60
2011,11,22,07,05,3.20
2011,11,22,07,06,1.60
2011,11,22,07,07,4.80
2011,11,22,07,08,3.20
2011,11,22,07,09,3.20
2011,11,22,07,10,3.20
2011,11,22,07,11,3.20
2011,11,22,07,14,1.60
2011,11,22,07,15,1.60
2011,11,22,07,16,3.20
2011,11,22,07,17,6.40
2011,11,22,07,18,8.10
2011,11,22,07,19,4.80
2011,11,22,07,23,1.60
2011,11,22,07,24,3.20
2011,11,22,07,25,1.60
2011,11,22,07,26,3.20
2011,11,22,07,27,6.40
2011,11,22,07,28,9.60
2011,11,22,07,29,4.80
2011,11,22,07,30,1.60
2011,11,22,07,31,8.10
2011,11,22,07,32,1.60
2011,11,22,07,33,3.20
2011,11,22,07,34,4.80
2011,11,22,07,35,6.40
2011,11,22,07,36,4.80
2011,11,22,07,37,6.40
2011,11,22,07,38,4.80
2011,11,22,07,39,9.60
2011,11,22,07,40,16.10
2011,11,22,07,41,8.10
2011,11,22,07,42,3.20
2011,11,22,07,44,9.60
2011,11,22,07,45,11.30
2011,11,22,07,46,8.10
2011,11,22,07,47,4.80
2011,11,22,07,48,3.20
2011,11,22,07,49,16.10
2011,11,22,07,50,4.80
2011,11,22,07,51,20.90
2011,11,22,07,52,8.10
2011,11,22,07,53,4.80
2011,11,22,07,54,1.60
2011,11,22,07,56,3.20
2011,11,22,07,57,1.60
2011,11,22,07,58,3.20
2011,11,22,07,59,1.60
2011,11,22,08,00,4.80
2011,11,22,08,01,6.40
2011,11,22,08,02,3.20
2011,11,22,08,03,1.60
2011,11,22,08,04,1.60
2011,11,22,08,05,1.60
2011,11,22,08,06,4.80
2011,11,22,08,07,1.60
2011,11,22,08,11,3.20
2011,11,22,08,12,1.60
2011,11,22,08,13,3.20
2011,11,22,08,14,3.20
2011,11,22,08,15,3.20
2011,11,22,08,16,3.20
2011,11,22,08,17,3.20
2011,11,22,08,18,3.20
2011,11,22,08,19,6.40
2011,11,22,08,20,1.60
2011,11,22,08,21,1.60
2011,11,22,08,22,3.20
2011,11,22,08,23,6.40
2011,11,22,08,24,12.90
2011,11,22,08,25,11.30
2011,11,22,08,26,8.10
2011,11,22,08,27,3.20
2011,11,22,08,28,1.60
2011,11,22,08,29,1.60
2011,11,22,08,30,6.40
2011,11,22,08,31,3.20
2011,11,22,08,33,8.10
2011,11,22,08,34,9.60
2011,11,22,08,35,3.20
2011,11,22,08,36,4.80
2011,11,22,08,37,6.40
2011,11,22,08,38,9.60
2011,11,22,08,39,4.80
2011,11,22,08,40,4.80
2011,11,22,08,41,1.60
2011,11,22,08,42,9.60
2011,11,22,08,43,4.80
2011,11,22,08,44,4.80
2011,11,22,08,45,4.80
2011,11,22,08,46,4.80
2011,11,22,08,47,9.60
2011,11,22,08,48,9.60
2011,11,22,08,49,16.10
2011,11,22,08,50,16.10
2011,11,22,08,51,9.60
2011,11,22,08,52,17.70
2011,11,22,08,53,3.20
2011,11,22,08,54,1.60
2011,11,22,08,55,12.90
2011,11,22,08,56,3.20
2011,11,22,08,57,8.10
2011,11,22,08,58,11.30
2011,11,22,08,59,3.20
2011,11,22,09,00,1.60
2011,11,22,09,01,4.80
2011,11,22,09,02,1.60
2011,11,22,09,03,6.40
2011,11,22,09,04,4.80
2011,11,22,09,05,3.20
2011,11,22,09,06,1.60
2011,11,22,09,07,1.60
2011,11,22,09,08,3.20
2011,11,22,09,09,4.80
2011,11,22,09,10,1.60
2011,11,22,09,11,6.40
2011,11,22,09,12,4.80
2011,11,22,09,13,4.80
2011,11,22,09,14,6.40
2011,11,22,09,15,6.40
2011,11,22,09,16,8.10
2011,11,22,09,17,6.40
2011,11,22,09,18,4.80
2011,11,22,09,19,4.80
2011,11,22,09,20,1.60
2011,11,22,09,21,1.60
2011,11,22,09,22,3.20
2011,11,22,09,23,8.10
2011,11,22,09,24,8.10
2011,11,22,09,25,3.20
2011,11,22,09,26,6.40
2011,11,22,09,27,8.10
2011,11,22,09,28,11.30
2011,11,22,09,29,3.20
2011,11,22,09,30,4.80
2011,11,22,09,31,3.20
2011,11,22,09,32,9.60
2011,11,22,09,33,3.20
2011,11,22,09,34,1.60
2011,11,22,09,35,8.10
2011,11,22,09,36,4.80
2011,11,22,09,37,3.20
2011,11,22,09,38,3.20
2011,11,22,09,39,3.20
2011,11,22,09,40,6.40
2011,11,22,09,41,9.60
2011,11,22,09,42,8.10
2011,11,22,09,43,1.60
2011,11,22,09,44,4.80
2011,11,22,09,45,4.80
2011,11,22,09,46,4.80
2011,11,22,09,47,14.50
2011,11,22,09,48,9.60
2011,11,22,09,49,3.20
2011,11,22,09,50,1.60
2011,11,22,09,51,6.40
2011,11,22,09,53,4.80
2011,11,22,09,54,1.60
2011,11,22,09,55,6.40
2011,11,22,09,56,12.90
2011,11,22,09,57,4.80
2011,11,22,09,58,8.10
2011,11,22,09,59,3.20
2011,11,22,10,00,4.80
2011,11,22,10,01,3.20
2011,11,22,10,02,6.40
2011,11,22,10,03,4.80
2011,11,22,10,04,4.80
2011,11,22,10,05,4.80
2011,11,22,10,06,9.60
2011,11,22,10,07,12.90
2011,11,22,10,08,4.80
2011,11,22,10,09,3.20
2011,11,22,10,10,9.60
2011,11,22,10,11,1.60
2011,11,22,10,12,4.80
2011,11,22,10,13,3.20
2011,11,22,10,14,4.80
2011,11,22,10,15,4.80
2011,11,22,10,16,3.20
2011,11,22,10,17,3.20
2011,11,22,10,18,1.60
2011,11,22,10,19,1.60
2011,11,22,10,20,4.80
2011,11,22,10,21,4.80
2011,11,22,10,22,1.60
2011,11,22,10,23,1.60
2011,11,22,10,24,4.80
2011,11,22,10,25,4.80
2011,11,22,10,26,1.60
2011,11,22,10,27,1.60
2011,11,22,10,28,3.20
2011,11,22,10,29,8.10
2011,11,22,10,30,4.80
2011,11,22,10,31,1.60
2011,11,22,10,32,1.60
2011,11,22,10,33,3.20
2011,11,22,10,34,3.20
2011,11,22,10,35,8.10
2011,11,22,10,36,4.80
2011,11,22,10,37,6.40
2011,11,22,10,38,9.60
2011,11,22,10,39,6.40
2011,11,22,10,40,4.80
2011,11,22,10,41,4.80
2011,11,22,10,42,6.40
2011,11,22,10,43,4.80
2011,11,22,10,44,8.10
2011,11,22,10,45,8.10
2011,11,22,10,46,4.80
2011,11,22,10,47,4.80
2011,11,22,10,48,8.10
2011,11,22,10,49,11.30
2011,11,22,10,50,9.60
2011,11,22,10,51,6.40
2011,11,22,10,52,6.40
2011,11,22,10,53,8.10
2011,11,22,10,54,4.80
2011,11,22,10,55,3.20
2011,11,22,10,56,1.60
2011,11,22,10,57,1.60
2011,11,22,10,58,1.60
2011,11,22,10,59,4.80
2011,11,22,11,00,1.60
2011,11,22,11,01,3.20
2011,11,22,11,02,3.20
2011,11,22,11,03,3.20
2011,11,22,11,04,4.80
2011,11,22,11,05,4.80
2011,11,22,11,06,4.80
2011,11,22,11,07,6.40
2011,11,22,11,08,8.10
2011,11,22,11,09,8.10
2011,11,22,11,10,3.20
2011,11,22,11,11,4.80
2011,11,22,11,12,3.20
2011,11,22,11,13,8.10
2011,11,22,11,14,11.30
2011,11,22,11,15,4.80
2011,11,22,11,16,6.40
2011,11,22,11,17,3.20
2011,11,22,11,18,4.80
2011,11,22,11,19,4.80
2011,11,22,11,20,9.60
2011,11,22,11,21,9.60
2011,11,22,11,22,6.40
2011,11,22,11,23,8.10
2011,11,22,11,24,9.60
2011,11,22,11,25,16.10
2011,11,22,11,26,9.60
2011,11,22,11,27,8.10
2011,11,22,11,28,6.40
2011,11,22,11,29,6.40
2011,11,22,11,30,4.80
2011,11,22,11,31,4.80
2011,11,22,11,32,3.20
2011,11,22,11,33,9.60
2011,11,22,11,34,11.30
2011,11,22,11,35,9.60
2011,11,22,11,36,9.60
2011,11,22,11,37,3.20
2011,11,22,11,38,4.80
2011,11,22,11,39,3.20
2011,11,22,11,40,3.20
2011,11,22,11,41,4.80
2011,11,22,11,42,4.80
2011,11,22,11,43,4.80
2011,11,22,11,44,3.20
2011,11,22,11,45,1.60
2011,11,22,11,46,6.40
2011,11,22,11,47,3.20
2011,11,22,11,48,3.20
2011,11,22,11,49,4.80
2011,11,22,11,50,4.80
2011,11,22,11,51,4.80
2011,11,22,11,52,4.80
2011,11,22,11,53,1.60
2011,11,22,11,54,4.80
2011,11,22,11,55,8.10
2011,11,22,11,56,3.20
2011,11,22,11,57,4.80
2011,11,22,11,58,8.10
2011,11,22,11,59,3.20
2011,11,22,12,00,1.60
2011,11,22,12,01,1.60
2011,11,22,12,02,3.20
2011,11,22,12,03,4.80
2011,11,22,12,04,6.40
2011,11,22,12,05,4.80
2011,11,22,12,06,4.80
2011,11,22,12,07,4.80
2011,11,22,12,08,1.60
2011,11,22,12,09,4.80
2011,11,22,12,10,4.80
2011,11,22,12,11,1.60
2011,11,22,12,12,6.40
2011,11,22,12,13,4.80
2011,11,22,12,14,8.10
2011,11,22,12,15,8.10
2011,11,22,12,16,6.40
2011,11,22,12,17,4.80
2011,11,22,12,18,8.10
2011,11,22,12,19,4.80
2011,11,22,12,20,4.80
2011,11,22,12,21,1.60
2011,11,22,12,22,6.40
2011,11,22,12,23,3.20
2011,11,22,12,24,4.80
2011,11,22,12,25,1.60
2011,11,22,12,26,4.80
2011,11,22,12,27,3.20
2011,11,22,12,28,4.80
2011,11,22,12,29,4.80
2011,11,22,12,30,3.20
2011,11,22,12,32,1.60
2011,11,22,12,33,4.80
2011,11,22,12,34,4.80
2011,11,22,12,35,4.80
2011,11,22,12,36,3.20
2011,11,22,12,37,4.80
2011,11,22,12,38,3.20
2011,11,22,12,39,3.20
2011,11,22,12,40,1.60
2011,11,22,12,41,4.80
2011,11,22,12,42,6.40
2011,11,22,12,43,9.60
2011,11,22,12,44,3.20
2011,11,22,12,45,4.80
2011,11,22,12,46,6.40
2011,11,22,12,47,4.80
2011,11,22,12,48,1.60
2011,11,22,12,50,3.20
2011,11,22,12,51,3.20
2011,11,22,12,52,1.60
2011,11,22,12,53,11.30
2011,11,22,12,54,9.60
2011,11,22,12,55,6.40
2011,11,22,12,56,4.80
2011,11,22,12,57,1.60
2011,11,22,12,58,4.80
2011,11,22,12,59,3.20
2011,11,22,13,00,9.60
2011,11,22,13,01,11.30
2011,11,22,13,02,11.30
2011,11,22,13,03,17.70
2011,11,22,13,04,4.80
2011,11,22,13,05,4.80
2011,11,22,13,06,4.80
2011,11,22,13,07,8.10
2011,11,22,13,08,3.20
2011,11,22,13,09,1.60
2011,11,22,13,10,3.20
2011,11,22,13,11,8.10
2011,11,22,13,12,3.20
2011,11,22,13,13,3.20
2011,11,22,13,14,3.20
2011,11,22,13,15,1.60
2011,11,22,13,16,1.60
2011,11,22,13,18,1.60
2011,11,22,13,29,3.20
2011,11,22,13,31,1.60
2011,11,22,13,32,4.80
2011,11,22,13,33,3.20
2011,11,22,13,34,3.20
2011,11,22,13,47,3.20
2011,11,22,13,48,3.20
2011,11,22,13,49,3.20
2011,11,22,13,50,1.60
2011,11,22,13,53,3.20
2011,11,22,13,54,3.20
2011,11,22,13,55,1.60
2011,11,22,13,56,3.20
2011,11,22,13,57,1.60
2011,11,22,14,00,1.60
2011,11,22,14,01,6.40
2011,11,22,14,02,6.40
2011,11,22,14,03,6.40
2011,11,22,14,04,6.40
2011,11,22,14,05,3.20
2011,11,22,14,07,4.80
2011,11,22,14,08,6.40
2011,11,22,14,09,6.40
2011,11,22,14,10,4.80
2011,11,22,14,11,1.60
2011,11,22,14,12,3.20
2011,11,22,14,13,4.80
2011,11,22,14,14,3.20
2011,11,22,14,18,1.60
2011,11,22,14,19,6.40
2011,11,22,14,20,4.80
2011,11,22,14,21,4.80
2011,11,22,14,22,4.80
2011,11,22,14,23,3.20
2011,11,22,14,24,1.60
2011,11,22,14,26,3.20
2011,11,22,14,28,1.60
2011,11,22,14,29,1.60
2011,11,22,14,30,3.20
2011,11,22,14,31,3.20
2011,11,22,14,32,3.20
2011,11,22,14,39,3.20
2011,11,22,14,40,4.80
2011,11,22,14,41,1.60
2011,11,22,14,42,4.80
2011,11,22,14,43,4.80
2011,11,22,14,44,3.20
2011,11,22,14,50,1.60
2011,11,22,14,54,3.20
2011,11,22,14,55,1.60
2011,11,22,15,01,1.60
2011,11,22,15,25,1.60
2011,11,22,15,26,1.60
2011,11,22,15,27,1.60
2011,11,22,15,28,3.20
2011,11,22,15,29,1.60
2011,11,22,15,30,1.60
2011,11,22,15,32,1.60
2011,11,22,15,33,1.60
2011,11,22,15,35,3.20
2011,11,22,15,36,1.60
2011,11,22,15,37,1.60
2011,11,22,16,00,3.20
2011,11,22,16,01,9.60
2011,11,22,16,02,8.10
2011,11,22,16,03,3.20
2011,11,22,16,04,4.80
2011,11,22,16,05,8.10
2011,11,22,16,06,14.50
2011,11,22,16,07,16.10
2011,11,22,16,08,9.60
2011,11,22,16,09,9.60
2011,11,22,16,10,9.60
2011,11,22,16,11,8.10
2011,11,22,16,12,9.60
2011,11,22,16,13,6.40
2011,11,22,16,14,6.40
2011,11,22,16,15,3.20
2011,11,22,16,16,16.10
2011,11,22,16,17,11.30
2011,11,22,16,18,9.60
2011,11,22,16,19,16.10
2011,11,22,16,20,11.30
2011,11,22,16,21,9.60
2011,11,22,16,22,16.10
2011,11,22,16,23,11.30
2011,11,22,16,24,9.60
2011,11,22,16,25,6.40
2011,11,22,16,26,8.10
2011,11,22,16,27,17.70
2011,11,22,16,28,11.30
2011,11,22,16,29,9.60
2011,11,22,16,30,11.30
2011,11,22,16,31,8.10
2011,11,22,16,32,8.10
2011,11,22,16,33,8.10
2011,11,22,16,34,11.30
2011,11,22,16,35,6.40
2011,11,22,16,36,6.40
2011,11,22,16,37,4.80
2011,11,22,16,38,6.40
2011,11,22,16,39,6.40
2011,11,22,16,40,11.30
2011,11,22,16,41,9.60
2011,11,22,16,42,11.30
2011,11,22,16,43,11.30
2011,11,22,16,44,12.90
2011,11,22,16,45,9.60
2011,11,22,16,46,14.50
2011,11,22,16,47,9.60
2011,11,22,16,48,8.10
2011,11,22,16,49,19.30
2011,11,22,16,50,17.70
2011,11,22,16,51,20.90
2011,11,22,16,52,6.40
2011,11,22,16,53,11.30
2011,11,22,16,54,9.60
2011,11,22,16,55,3.20
2011,11,22,16,56,4.80
2011,11,22,16,57,4.80
2011,11,22,16,58,9.60
2011,11,22,16,59,8.10
2011,11,22,17,00,6.40
2011,11,22,17,01,9.60
2011,11,22,17,02,8.10
2011,11,22,17,03,8.10
2011,11,22,17,04,8.10
2011,11,22,17,05,9.60
2011,11,22,17,06,17.70
2011,11,22,17,07,11.30
2011,11,22,17,08,6.40
2011,11,22,17,09,6.40
2011,11,22,17,10,12.90
2011,11,22,17,11,16.10
2011,11,22,17,12,14.50
2011,11,22,17,13,9.60
2011,11,22,17,14,9.60
2011,11,22,17,15,16.10
2011,11,22,17,16,9.60
2011,11,22,17,17,11.30
2011,11,22,17,18,17.70
2011,11,22,17,19,20.90
2011,11,22,17,20,16.10
2011,11,22,17,21,11.30
2011,11,22,17,22,11.30
2011,11,22,17,23,6.40
2011,11,22,17,24,14.50
2011,11,22,17,25,17.70
2011,11,22,17,26,14.50
2011,11,22,17,27,17.70
2011,11,22,17,28,8.10
2011,11,22,17,29,16.10
2011,11,22,17,30,8.10
2011,11,22,17,31,9.60
2011,11,22,17,32,8.10
2011,11,22,17,33,8.10
2011,11,22,17,34,11.30
2011,11,22,17,35,6.40
2011,11,22,17,36,17.70
2011,11,22,17,37,14.50
2011,11,22,17,38,6.40
2011,11,22,17,39,9.60
2011,11,22,17,40,9.60
2011,11,22,17,41,9.60
2011,11,22,17,42,14.50
2011,11,22,17,43,9.60
2011,11,22,17,44,8.10
2011,11,22,17,45,16.10
2011,11,22,17,46,9.60
2011,11,22,17,47,11.30
2011,11,22,17,48,12.90
2011,11,22,17,49,12.90
2011,11,22,17,50,16.10
2011,11,22,17,51,11.30
2011,11,22,17,52,20.90
2011,11,22,17,53,22.50
2011,11,22,17,54,6.40
2011,11,22,17,55,8.10
2011,11,22,17,56,6.40
2011,11,22,17,57,6.40
2011,11,22,17,58,4.80
2011,11,22,17,59,4.80
2011,11,22,18,00,9.60
2011,11,22,18,01,4.80
2011,11,22,18,02,12.90
2011,11,22,18,03,6.40
2011,11,22,18,04,11.30
2011,11,22,18,05,9.60
2011,11,22,18,06,9.60
2011,11,22,18,07,6.40
2011,11,22,18,08,6.40
2011,11,22,18,09,4.80
2011,11,22,18,10,4.80
2011,11,22,18,11,1.60
2011,11,22,18,12,9.60
2011,11,22,18,13,16.10
2011,11,22,18,14,6.40
2011,11,22,18,15,11.30
2011,11,22,18,16,11.30
2011,11,22,18,17,4.80
2011,11,22,18,18,8.10
2011,11,22,18,19,11.30
2011,11,22,18,20,9.60
2011,11,22,18,21,8.10
2011,11,22,18,22,8.10
2011,11,22,18,23,16.10
2011,11,22,18,24,14.50
2011,11,22,18,25,9.60
2011,11,22,18,26,8.10
2011,11,22,18,27,6.40
2011,11,22,18,28,6.40
2011,11,22,18,29,8.10
2011,11,22,18,30,4.80
2011,11,22,18,31,8.10
2011,11,22,18,32,19.30
2011,11,22,18,33,12.90
2011,11,22,18,34,9.60
2011,11,22,18,35,3.20
2011,11,22,18,36,8.10
2011,11,22,18,37,6.40
2011,11,22,18,38,9.60
2011,11,22,18,39,9.60
2011,11,22,18,40,9.60
2011,11,22,18,41,16.10
2011,11,22,18,42,4.80
2011,11,22,18,43,6.40
2011,11,22,18,44,4.80
2011,11,22,18,45,6.40
2011,11,22,18,46,8.10
2011,11,22,18,47,3.20
2011,11,22,18,48,3.20
2011,11,22,18,49,4.80
2011,11,22,18,50,4.80
2011,11,22,18,51,1.60
2011,11,22,18,52,1.60
2011,11,22,18,53,3.20
2011,11,22,18,54,3.20
2011,11,22,18,55,1.60
2011,11,22,18,56,6.40
2011,11,22,18,57,3.20
2011,11,22,18,58,4.80
2011,11,22,18,59,4.80
2011,11,22,19,00,3.20
2011,11,22,19,01,3.20
2011,11,22,19,02,4.80
2011,11,22,19,03,4.80
2011,11,22,19,04,4.80
2011,11,22,19,05,3.20
2011,11,22,19,06,8.10
2011,11,22,19,07,3.20
2011,11,22,19,08,1.60
2011,11,22,19,09,6.40
2011,11,22,19,10,3.20
2011,11,22,19,11,8.10
2011,11,22,19,12,6.40
2011,11,22,19,13,6.40
2011,11,22,19,14,4.80
2011,11,22,19,15,8.10
2011,11,22,19,16,6.40
2011,11,22,19,17,1.60
2011,11,22,19,18,4.80
2011,11,22,19,21,4.80
2011,11,22,19,22,3.20
2011,11,22,19,24,3.20
2011,11,22,19,25,3.20
2011,11,22,19,26,1.60
2011,11,22,19,27,1.60
2011,11,22,19,29,1.60
2011,11,22,19,31,4.80
2011,11,22,19,32,4.80
2011,11,22,19,33,1.60
2011,11,22,19,35,1.60
2011,11,22,19,36,3.20
2011,11,22,19,37,3.20
2011,11,22,19,38,1.60
2011,11,22,19,39,1.60
2011,11,22,19,40,1.60
2011,11,22,19,41,1.60
2011,11,22,19,42,3.20
2011,11,22,19,45,3.20
2011,11,22,19,46,1.60
2011,11,22,19,47,3.20
2011,11,22,19,48,1.60
2011,11,22,19,51,1.60
2011,11,22,19,59,3.20
2011,11,22,20,00,4.80
2011,11,22,20,01,6.40
2011,11,22,20,02,6.40
2011,11,22,20,03,1.60
2011,11,22,20,04,3.20
2011,11,22,20,05,1.60
2011,11,22,20,06,3.20
2011,11,22,20,07,3.20
2011,11,22,20,11,6.40
2011,11,22,20,12,6.40
2011,11,22,20,13,4.80
2011,11,22,20,14,4.80
2011,11,22,20,15,8.10
2011,11,22,20,16,6.40
2011,11,22,20,17,6.40
2011,11,22,20,18,8.10
2011,11,22,20,19,6.40
2011,11,22,20,20,8.10
2011,11,22,20,21,8.10
2011,11,22,20,22,6.40
2011,11,22,20,23,9.60
2011,11,22,20,24,8.10
2011,11,22,20,25,8.10
2011,11,22,20,26,4.80
2011,11,22,20,27,6.40
2011,11,22,20,28,6.40
2011,11,22,20,29,6.40
2011,11,22,20,30,8.10
2011,11,22,20,31,8.10
2011,11,22,20,32,6.40
2011,11,22,20,33,4.80
2011,11,22,20,34,8.10
2011,11,22,20,35,4.80
2011,11,22,20,36,6.40
2011,11,22,20,37,4.80
2011,11,22,20,38,8.10
2011,11,22,20,39,8.10
2011,11,22,20,40,9.60